Apiliotis — SYVY — position and weather

sailwx.info

Track history (hours):
 
Tides and Currents Weather Stations Pressure Air Temp Water Temp Dewpoint Dewpoint Depression Visibility Wind Speed Wind Dir Waves Ship Positions

Apiliotis

Last reported at 2014-Nov-25 01:30 UTC. Time now 2014-Nov-25 01:54 UTC.
Position N 37°26' E 024°56'.

Length 79 m; draft 4.5 m.

Type: Ship. MMSI: 240438000.

Date/timePositionNaut miles runAvg speedWind from/ knotsBaromVisibWave heightAir tempDewpointWater temp
2014-Nov-25 01:30N 37°26' E 024°56'0 0.0
2014-Nov-25 00:33N 37°26' E 024°56'0 0.0
2014-Nov-24 23:18N 37°26' E 024°56'0 0.0
2014-Nov-24 22:33N 37°26' E 024°56'0 0.0
2014-Nov-24 21:32N 37°26' E 024°56'0 0.0
2014-Nov-24 20:33N 37°26' E 024°56'0 0.0
2014-Nov-24 19:33N 37°26' E 024°56'0 0.0
2014-Nov-24 18:32N 37°26' E 024°56'0 0.0
2014-Nov-24 17:31N 37°26' E 024°56'0 0.0
2014-Nov-24 16:33N 37°26' E 024°56'0 0.0
2014-Nov-24 15:31N 37°26' E 024°56'0 0.3
2014-Nov-24 14:33N 37°26' E 024°56'0 0.0
2014-Nov-24 13:21N 37°26' E 024°56'0 0.0
2014-Nov-24 12:33N 37°26' E 024°56'0 0.0
2014-Nov-24 11:28N 37°26' E 024°56'0 0.0
2014-Nov-24 10:32N 37°26' E 024°56'2 2.0
2014-Nov-24 09:33N 37°25' E 024°58'0 0.1
2014-Nov-24 08:34N 37°25' E 024°58'0 0.0
2014-Nov-24 07:34N 37°25' E 024°58'0 0.0
2014-Nov-24 06:33N 37°25' E 024°58'0 0.0
2014-Nov-24 05:33N 37°25' E 024°58'0 0.0
2014-Nov-24 04:33N 37°25' E 024°58'0 0.0
2014-Nov-24 03:34N 37°25' E 024°58'0 0.0
2014-Nov-24 02:33N 37°25' E 024°58'0 0.0
2014-Nov-24 01:33N 37°25' E 024°58'0 0.0
2014-Nov-24 00:33N 37°25' E 024°58'0 0.0
2014-Nov-23 23:33N 37°25' E 024°58'0 0.0
2014-Nov-23 22:34N 37°25' E 024°58'0 0.0
2014-Nov-23 21:33N 37°25' E 024°58'0 0.0
2014-Nov-23 20:33N 37°25' E 024°58'0 0.0
2014-Nov-23 19:33N 37°25' E 024°58'0 0.0
2014-Nov-23 18:33N 37°25' E 024°58'0 0.0
2014-Nov-23 17:33N 37°25' E 024°58'0 0.0
2014-Nov-23 16:33N 37°25' E 024°58'0 0.0
2014-Nov-23 15:34N 37°25' E 024°58'0 0.0
2014-Nov-23 14:33N 37°25' E 024°58'0 0.0
2014-Nov-23 13:33N 37°25' E 024°58'0 0.0
2014-Nov-23 12:33N 37°25' E 024°58'0 0.0
2014-Nov-23 11:33N 37°25' E 024°58'0 0.0
2014-Nov-23 10:34N 37°25' E 024°58'0 0.0
2014-Nov-23 09:33N 37°25' E 024°58'0 0.0
2014-Nov-23 08:34N 37°25' E 024°58'0 0.1
2014-Nov-23 07:33N 37°25' E 024°58'2 2.0
2014-Nov-23 06:32N 37°26' E 024°56'4 4.2
2014-Nov-23 05:33N 37°31' E 024°57'4210.2
2014-Nov-23 01:29N 38°11' E 024°43'67 2.1
2014-Nov-21 17:19N 39°12' E 024°09'  
2014-Nov-18 01:19N 38°14' E 025°29'911.8
2014-Nov-18 00:33N 38°06' E 025°22'1212.3
2014-Nov-17 23:33N 37°57' E 025°13'1312.4
2014-Nov-17 22:33N 37°46' E 025°04'1212.1
2014-Nov-17 21:33N 37°38' E 024°53'1212.1
2014-Nov-17 20:34N 37°33' E 024°39'1212.0
2014-Nov-17 19:33N 37°30' E 024°25'6 1.5
2014-Nov-17 15:27N 37°24' E 024°23'8 9.2
2014-Nov-17 14:33N 37°32' E 024°26'1211.7
2014-Nov-17 13:33N 37°41' E 024°35'12 2.1
2014-Nov-17 08:08N 37°51' E 024°43'711.1
2014-Nov-17 07:30N 37°45' E 024°47'1010.4
2014-Nov-17 06:33N 37°36' E 024°54'1010.3
2014-Nov-17 05:33N 37°26' E 024°57'1 0.8
2014-Nov-17 04:33N 37°26' E 024°56'0 0.0
2014-Nov-17 03:33N 37°26' E 024°56'0 0.0
2014-Nov-17 02:33N 37°26' E 024°56'0 0.0
2014-Nov-17 01:34N 37°26' E 024°56'0 0.0
2014-Nov-17 00:33N 37°26' E 024°56'0 0.0
2014-Nov-16 23:33N 37°26' E 024°56'0 0.0
2014-Nov-16 22:33N 37°26' E 024°56'0 0.0
2014-Nov-16 21:32N 37°26' E 024°56'0 0.0
2014-Nov-16 20:33N 37°26' E 024°56'0 0.0
2014-Nov-16 19:33N 37°26' E 024°56'0 0.0
2014-Nov-16 18:26N 37°26' E 024°56'0 0.0
2014-Nov-16 17:33N 37°26' E 024°56'0 0.0
2014-Nov-16 16:33N 37°26' E 024°56'0 0.0
2014-Nov-16 15:30N 37°26' E 024°56'0 0.0
2014-Nov-16 14:32N 37°26' E 024°56'0 0.0
2014-Nov-16 13:29N 37°26' E 024°56'0 0.0
2014-Nov-16 12:24N 37°26' E 024°56'0 0.0
2014-Nov-16 11:30N 37°26' E 024°56'0 0.0
2014-Nov-16 10:33N 37°26' E 024°56'7 7.3
2014-Nov-16 09:33N 37°28' E 025°05'1110.8
2014-Nov-16 08:33N 37°28' E 025°19'1 0.7
2014-Nov-16 07:33N 37°28' E 025°19'0 0.0
2014-Nov-16 06:33N 37°28' E 025°19'6 6.1
2014-Nov-16 05:33N 37°30' E 025°13'3 3.1
2014-Nov-16 04:33N 37°32' E 025°09'0 0.0
2014-Nov-16 03:33N 37°32' E 025°09'0 0.0
2014-Nov-16 02:33N 37°32' E 025°09'0 0.0
2014-Nov-16 01:33N 37°32' E 025°09'0 0.0
2014-Nov-16 00:33N 37°32' E 025°09'0 0.0
2014-Nov-15 23:33N 37°32' E 025°09'0 0.0
2014-Nov-15 22:33N 37°32' E 025°09'0 0.0
2014-Nov-15 21:33N 37°32' E 025°09'0 0.0
2014-Nov-15 20:33N 37°32' E 025°09'2 2.0
2014-Nov-15 19:34N 37°31' E 025°10'10 9.7
2014-Nov-15 18:33N 37°34' E 025°22'1110.7
2014-Nov-15 17:33N 37°34' E 025°35'1111.0
2014-Nov-15 16:33N 37°36' E 025°49'1111.5
2014-Nov-15 15:33N 37°39' E 026°03'13 1.9
2014-Nov-15 08:33N 37°37' E 026°20'2 1.7
2014-Nov-15 07:32N 37°37' E 026°18'0 0.0
2014-Nov-15 06:33N 37°37' E 026°18'0 0.0
2014-Nov-15 05:33N 37°37' E 026°18'0 0.0
2014-Nov-15 04:33N 37°37' E 026°18'5 4.9
2014-Nov-15 03:33N 37°39' E 026°23'  
Track history (hours):
 
Tides and Currents Weather Stations Pressure Air Temp Water Temp Dewpoint Dewpoint Depression Visibility Wind Speed Wind Dir Waves Ship Positions

Apiliotis

Last reported at 2014-Nov-25 01:30 UTC. Time now 2014-Nov-25 01:54 UTC.
Position N 37°26' E 024°56'.

Length 79 m; draft 4.5 m.

Type: Ship. MMSI: 240438000.

Date/timePositionNaut miles runAvg speedWind from/ knotsBaromVisibWave heightAir tempDewpointWater temp
2014-Nov-25 01:30N 37°26' E 024°56'0 0.0
2014-Nov-25 00:33N 37°26' E 024°56'0 0.0
2014-Nov-24 23:18N 37°26' E 024°56'0 0.0
2014-Nov-24 22:33N 37°26' E 024°56'0 0.0
2014-Nov-24 21:32N 37°26' E 024°56'0 0.0
2014-Nov-24 20:33N 37°26' E 024°56'0 0.0
2014-Nov-24 19:33N 37°26' E 024°56'0 0.0
2014-Nov-24 18:32N 37°26' E 024°56'0 0.0
2014-Nov-24 17:31N 37°26' E 024°56'0 0.0
2014-Nov-24 16:33N 37°26' E 024°56'0 0.0
2014-Nov-24 15:31N 37°26' E 024°56'0 0.3
2014-Nov-24 14:33N 37°26' E 024°56'0 0.0
2014-Nov-24 13:21N 37°26' E 024°56'0 0.0
2014-Nov-24 12:33N 37°26' E 024°56'0 0.0
2014-Nov-24 11:28N 37°26' E 024°56'0 0.0
2014-Nov-24 10:32N 37°26' E 024°56'2 2.0
2014-Nov-24 09:33N 37°25' E 024°58'0 0.1
2014-Nov-24 08:34N 37°25' E 024°58'0 0.0
2014-Nov-24 07:34N 37°25' E 024°58'0 0.0
2014-Nov-24 06:33N 37°25' E 024°58'0 0.0
2014-Nov-24 05:33N 37°25' E 024°58'0 0.0
2014-Nov-24 04:33N 37°25' E 024°58'0 0.0
2014-Nov-24 03:34N 37°25' E 024°58'0 0.0
2014-Nov-24 02:33N 37°25' E 024°58'0 0.0
2014-Nov-24 01:33N 37°25' E 024°58'0 0.0
2014-Nov-24 00:33N 37°25' E 024°58'0 0.0
2014-Nov-23 23:33N 37°25' E 024°58'0 0.0
2014-Nov-23 22:34N 37°25' E 024°58'0 0.0
2014-Nov-23 21:33N 37°25' E 024°58'0 0.0
2014-Nov-23 20:33N 37°25' E 024°58'0 0.0
2014-Nov-23 19:33N 37°25' E 024°58'0 0.0
2014-Nov-23 18:33N 37°25' E 024°58'0 0.0
2014-Nov-23 17:33N 37°25' E 024°58'0 0.0
2014-Nov-23 16:33N 37°25' E 024°58'0 0.0
2014-Nov-23 15:34N 37°25' E 024°58'0 0.0
2014-Nov-23 14:33N 37°25' E 024°58'0 0.0
2014-Nov-23 13:33N 37°25' E 024°58'0 0.0
2014-Nov-23 12:33N 37°25' E 024°58'0 0.0
2014-Nov-23 11:33N 37°25' E 024°58'0 0.0
2014-Nov-23 10:34N 37°25' E 024°58'0 0.0
2014-Nov-23 09:33N 37°25' E 024°58'0 0.0
2014-Nov-23 08:34N 37°25' E 024°58'0 0.1
2014-Nov-23 07:33N 37°25' E 024°58'2 2.0
2014-Nov-23 06:32N 37°26' E 024°56'4 4.2
2014-Nov-23 05:33N 37°31' E 024°57'4210.2
2014-Nov-23 01:29N 38°11' E 024°43'67 2.1
2014-Nov-21 17:19N 39°12' E 024°09'  
2014-Nov-18 01:19N 38°14' E 025°29'911.8
2014-Nov-18 00:33N 38°06' E 025°22'1212.3
2014-Nov-17 23:33N 37°57' E 025°13'1312.4
2014-Nov-17 22:33N 37°46' E 025°04'1212.1
2014-Nov-17 21:33N 37°38' E 024°53'1212.1
2014-Nov-17 20:34N 37°33' E 024°39'1212.0
2014-Nov-17 19:33N 37°30' E 024°25'6 1.5
2014-Nov-17 15:27N 37°24' E 024°23'8 9.2
2014-Nov-17 14:33N 37°32' E 024°26'1211.7
2014-Nov-17 13:33N 37°41' E 024°35'12 2.1
2014-Nov-17 08:08N 37°51' E 024°43'711.1
2014-Nov-17 07:30N 37°45' E 024°47'1010.4
2014-Nov-17 06:33N 37°36' E 024°54'1010.3
2014-Nov-17 05:33N 37°26' E 024°57'1 0.8
2014-Nov-17 04:33N 37°26' E 024°56'0 0.0
2014-Nov-17 03:33N 37°26' E 024°56'0 0.0
2014-Nov-17 02:33N 37°26' E 024°56'0 0.0
2014-Nov-17 01:34N 37°26' E 024°56'0 0.0
2014-Nov-17 00:33N 37°26' E 024°56'0 0.0
2014-Nov-16 23:33N 37°26' E 024°56'0 0.0
2014-Nov-16 22:33N 37°26' E 024°56'0 0.0
2014-Nov-16 21:32N 37°26' E 024°56'0 0.0
2014-Nov-16 20:33N 37°26' E 024°56'0 0.0
2014-Nov-16 19:33N 37°26' E 024°56'0 0.0
2014-Nov-16 18:26N 37°26' E 024°56'0 0.0
2014-Nov-16 17:33N 37°26' E 024°56'0 0.0
2014-Nov-16 16:33N 37°26' E 024°56'0 0.0
2014-Nov-16 15:30N 37°26' E 024°56'0 0.0
2014-Nov-16 14:32N 37°26' E 024°56'0 0.0
2014-Nov-16 13:29N 37°26' E 024°56'0 0.0
2014-Nov-16 12:24N 37°26' E 024°56'0 0.0
2014-Nov-16 11:30N 37°26' E 024°56'0 0.0
2014-Nov-16 10:33N 37°26' E 024°56'7 7.3
2014-Nov-16 09:33N 37°28' E 025°05'1110.8
2014-Nov-16 08:33N 37°28' E 025°19'1 0.7
2014-Nov-16 07:33N 37°28' E 025°19'0 0.0
2014-Nov-16 06:33N 37°28' E 025°19'6 6.1
2014-Nov-16 05:33N 37°30' E 025°13'3 3.1
2014-Nov-16 04:33N 37°32' E 025°09'0 0.0
2014-Nov-16 03:33N 37°32' E 025°09'0 0.0
2014-Nov-16 02:33N 37°32' E 025°09'0 0.0
2014-Nov-16 01:33N 37°32' E 025°09'0 0.0
2014-Nov-16 00:33N 37°32' E 025°09'0 0.0
2014-Nov-15 23:33N 37°32' E 025°09'0 0.0
2014-Nov-15 22:33N 37°32' E 025°09'0 0.0
2014-Nov-15 21:33N 37°32' E 025°09'0 0.0
2014-Nov-15 20:33N 37°32' E 025°09'2 2.0
2014-Nov-15 19:34N 37°31' E 025°10'10 9.7
2014-Nov-15 18:33N 37°34' E 025°22'1110.7
2014-Nov-15 17:33N 37°34' E 025°35'1111.0
2014-Nov-15 16:33N 37°36' E 025°49'1111.5
2014-Nov-15 15:33N 37°39' E 026°03'13 1.9
2014-Nov-15 08:33N 37°37' E 026°20'2 1.7
2014-Nov-15 07:32N 37°37' E 026°18'0 0.0
2014-Nov-15 06:33N 37°37' E 026°18'0 0.0
2014-Nov-15 05:33N 37°37' E 026°18'0 0.0
2014-Nov-15 04:33N 37°37' E 026°18'5 4.9
2014-Nov-15 03:33N 37°39' E 026°23'  

Dump ship's entire track history